Lid_Strength_Index
7 7 7 4 5 4 4 3 3 3 2 3 3 2 3 4 3 2 1 2 2 1 2 2 2 2 2 2 2 2 2 3
7 7 5 4 4 4 4 3 3 3 3 3 3 3 3 3 2 2 2 2 1 2 2 2 1 2 2 2 2 2 3 2
6 6 5 5 5 5 4 3 3 3 3 3 3 3 3 2 3 3 3 3 2 3 3 3 2 2 2 1 2 2 3 3
5 5 5 5 4 4 3 3 3 3 3 3 3 3 3 3 4 4 4 4 3 3 3 3 3 4 10 7 4 3 3 3
6 5 5 4 4 4 4 3 3 3 3 3 2 3 3 3 3 4 4 3 2 3 3 3 4 6 10 9 7 3 3 3
6 5 5 4 3 3 3 3 3 3 3 3 2 2 3 3 3 3 3 2 2 2 3 4 5 5 9 9 6 2 2 3
5 4 4 4 3 3 3 3 3 3 3 3 2 3 3 2 3 2 2 2 2 3 4 4 3 3 9 9 5 3 4 4
4 4 4 4 3 3 3 4 3 4 3 3 2 2 2 3 2 2 2 3 3 3 3 4 6 4 9 9 5 3 3 4
4 4 4 5 4 3 4 4 4 3 2 2 2 2 2 2 2 2 3 2 2 3 3 4 3 3 5 9 7 3 3 3
4 4 4 3 3 3 4 4 3 2 2 2 2 2 2 2 2 3 2 3 3 3 3 3 2 3 8 9 8 7 6 3
4 4 4 3 3 3 4 3 2 2 2 3 3 2 2 2 2 3 3 3 3 3 4 4 3 4 6 10 10 10 8 4
4 4 4 4 3 3 3 2 2 2 3 3 4 3 3 3 2 3 3 3 3 3 4 4 3 4 4 5 5 6 8 7
4 4 4 4 3 3 2 2 2 3 3 3 3 3 4 6 8 7 3 4 4 3 3 4 3 4 4 6 5 4 4 6
4 4 4 4 3 3 2 2 2 3 3 3 3 3 4 5 6 8 13 13 12 11 8 5 4 8 10 9 10 11 10 9
4 4 4 3 3 3 3 2 2 3 3 3 3 3 4 4 4 5 7 9 12 13 11 10 10 10 11 11 12 12 13 9
3 3 3 3 3 3 2 2 2 3 3 6 3 3 3 4 4 4 4 4 5 7 12 11 12 12 12 13 13 9 5 6
3 5 5 5 3 3 2 2 2 3 3 3 2 2 3 4 4 4 4 5 6 7 7 10 13 13 13 13 12 4 4 3
6 7 7 7 6 4 2 2 3 3 3 7 5 2 3 3 3 4 5 5 4 4 4 5 8 7 7 7 6 5 4 3
8 9 8 8 7 5 4 3 3 3 3 4 6 2 3 3 3 4 4 4 3 4 4 7 14 5 5 5 5 3 3 3
9 9 9 8 8 6 5 5 3 2 3 3 3 3 2 3 3 3 2 3 3 3 4 7 13 4 4 4 4 5 7 8